Skip Page Navigation
NASA JPL Caltech
NASA Logo - Jet Propulsion Laboratory + View the NASA Portal
+ Center for Near-Earth Object Studies
JPL Home Earth Solar System Stars & Galaxies Technology
JPL Solar System Dynamics
BODIES ORBITS EPHEMERIDES TOOLS PHYSICAL DATA DISCOVERY FAQ SITE MAP
IMPORTANT: The SSD Announcement email list is now available. Major changes are coming in the near future, including possible hostname and/or URL changes. To be notified of such changes, subscribe to this email list.

Please visit this page for more details.


JPL Small-Body Database Browser
Search: [ help ]  
105048 (2000 KN52)
Classification: Main-belt Asteroid          SPK-ID: 2105048
Ephemeris | Orbit Diagram | Orbital Elements | Mission Design | Physical Parameters | Discovery Circumstances | Close-Approach Data ]

[ show orbit diagram ]
Orbital Elements at Epoch 2459000.5 (2020-May-31.0) TDB
Reference: JPL 20 (heliocentric ecliptic J2000)
 Element Value Uncertainty (1-sigma)   Units 
e .09628026635056948 6.2503e-08  
a 3.107347111601968 2.8205e-08 au
q 2.808170904053258 2.0539e-07 au
i 7.250771927240535 6.0821e-06 deg
node 194.5143444641983 3.4423e-05 deg
peri 3.195609712832775 4.1492e-05 deg
M 264.2422119829317 2.5132e-05 deg
tp 2459532.675265979446
(2021-Nov-14.17526598)
0.00014333 TDB
period 2000.705109420987
5.48
2.724e-05
7.458e-08
d
yr
n .1799365625172945 2.4499e-09 deg/d
Q 3.406523319150678 3.0921e-08 au
  Orbit Determination Parameters
   # obs. used (total)      627  
   data-arc span      7206 days (19.73 yr)  
   first obs. used      2000-05-05  
   last obs. used      2020-01-27  
   planetary ephem.      DE431  
   SB-pert. ephem.      SB431-N16  
   condition code      0  
   norm. resid. RMS      .58924  
   source      ORB  
   producer      Otto Matic  
   solution date      2020-Feb-24 02:15:26  

Additional Information
 Earth MOID = 1.80637 au 
 Jupiter MOID = 1.55032 au 
 T_jup = 3.201 
[ show covariance matrix ]

Ephemeris | Orbit Diagram | Orbital Elements | Mission Design | Physical Parameters | Discovery Circumstances | Close-Approach Data ]

Physical Parameter Table
Parameter Symbol Value Units Sigma Reference Notes
absolute magnitude H 14.8   n/a MPO379269  
diameter diameter 5.754 km 0.388 urn:nasa:pds:neowise_diameters_albedos::2.0[mainbelt] (http://adsabs.harvard.edu/abs/2011ApJ...741...68M)  
geometric albedo albedo 0.085   0.013 urn:nasa:pds:neowise_diameters_albedos::2.0[mainbelt] (http://adsabs.harvard.edu/abs/2011ApJ...741...68M)  

105048 (2000 KN52)          Discovered 2000-May-24 by LONEOS at Anderson Mesa
Reference: 20051019/Numbers.arcLast Updated: 2005-10-26

[ hide close-approach data ]
Close-Approach Data   ...sorted by Date/Time (TDB)
Date/Time (TDB) Time Uncertainty
(days_HH:MM)
Body Nominal Distance (au) Minimum Distance (au) Maximum Distance (au) V-relative (km/s) V-infinity (km/s) JD (TDB) Time Uncertainty (minutes) Semi-major axis (km) Semi-minor axis (km) range-LOV angle (deg) N-sigma BP Orbit Ref. Reference Modified
1903-Jun-19 20:45 00:05 Jupiter 1.71329407243572 1.71329169581485 1.71329644906457 2.52355522907449 2.31938916535516 2416285.364529249 4.88698234331148 235.764921104448 30.0708924120166 -65.8546664925135 2009470.05305639 T 20 CATAB v2.0f-lin.ifort 2020-Feb-24 02:15:42 2020-Feb-24 02:15
1964-Oct-23 21:49 00:02 Jupiter 1.68203708475283 1.68203599975224 1.68203816975581 2.72915246420192 2.53793897518314 2438692.408764530 2.21668549202727 139.527010636119 29.644112503899 73.5534467305733 2110337.1713537 T 20 CATAB v2.0f-lin.ifort 2020-Feb-24 02:15:42 2020-Feb-24 02:15
1974-Nov-07 19:50 00:02 Jupiter 1.67562616557769 1.67562516950576 1.67562716165038 2.55912709660033 2.35332515132236 2442359.326670970 1.74932379766455 104.783853327471 29.1741640122729 -74.2706621162912 1938099.55108196 T 20 CATAB v2.0f-lin.ifort 2020-Feb-24 02:15:42 2020-Feb-24 02:15
2036-Mar-12 21:35 < 00:01 Jupiter 1.72346009417483 1.72345942978471 1.72346075856505 2.72718798891958 2.54059476760417 2464765.399483406 0.917627375854945 72.1563047014239 24.8047807422908 84.2902720379769 2180627.2779424 T 20 CATAB v2.0f-lin.ifort 2020-Feb-24 02:15:42 2020-Feb-24 02:15
2046-Mar-27 05:12 00:01 Jupiter 1.6443523383821 1.64435172615498 1.64435295060958 2.59638888470618 2.38977300560266 2468431.716889481 1.41710014434282 108.442840898438 25.4472583542805 -81.671702512124 1935275.91838222 T 20 CATAB v2.0f-lin.ifort 2020-Feb-24 02:15:42 2020-Feb-24 02:15
2107-Jul-30 19:48 00:04 Jupiter 1.76379090201402 1.76378884224049 1.76379296179045 2.71614666670029 2.53317900623057 2490836.325062457 4.02398227478197 164.777090263223 36.8908450795758 60.2502653945592 2120515.91801781 T 20 CATAB v2.0f-lin.ifort 2020-Feb-24 02:15:42 2020-Feb-24 02:15
2117-Aug-13 09:30 00:04 Jupiter 1.61368047256543 1.61367921630843 1.61368172883876 2.6185802985547 2.40980512751841 2494502.895643063 4.45955869647652 308.872896794584 26.9336863854809 -79.4818046307819 1872964.81686304 T 20 CATAB v2.0f-lin.ifort 2020-Feb-24 02:15:42 2020-Feb-24 02:15
2178-Dec-14 05:28 00:07 Jupiter 1.80777413638827 1.80777039670796 1.80777787607146 2.7119851245685 2.53333267474652 2516905.727588493 7.13672957497758 225.829681988176 43.8101813049542 47.1615848210795 1712560.22038786 T 20 CATAB v2.0f-lin.ifort 2020-Feb-24 02:15:42 2020-Feb-24 02:15
2188-Dec-25 07:55 00:07 Jupiter 1.58675978168642 1.58675825389469 1.58676130953535 2.62273985252422 2.41063301806388 2520569.830038148 7.44183275542981 541.222816553231 26.2982516938796 -82.8326826713163 1809683.84569807 T 20 CATAB v2.0f-lin.ifort 2020-Feb-24 02:15:42 2020-Feb-24 02:15
Ephemeris | Orbit Diagram | Orbital Elements | Mission Design | Physical Parameters | Discovery Circumstances | Close-Approach Data ]
ABOUT SSD CREDITS/AWARDS PRIVACY/COPYRIGHT GLOSSARY LINKS
FirstGov 2020-Jun-04 02:13 UT
(server date/time)  
NASA Home Page
Site Manager:   Ryan S. Park
Webmaster  Alan B. Chamberlin